Location: Antioch Baptist Church
(32.6696°N, 85.7327°W)
Time: 00:51:43
(UTC+00:00)

BREEZE-M DEB (TANK) - Pass Details

Date: 14 July 2020
Orbit: 309 x 15749 km, 49.4° (Epoch: 11 August)

Event Time Altitude Azimuth Distance (km) Brightness Sun altitude
Rises 03:23:06 0° 310° (NW) 5,075 8.5 -25.5°
Reaches altitude 10° 03:28:12 10° 320° (NW) 2,709 6.8 -26.2°
Enters shadow 03:32:28 27° 15° (NNE) 1,002 3.9 -26.7°
